This is the latest recevied weather packets stored in our database for station/object W0WFX-2. If no packets are shown the sender has not sent any weather packets the latest 10 day(s).
| Time | Temp. | Humidity | Pressure | Rain* | Wind** | Luminosity | Snow |
|---|---|---|---|---|---|---|---|
| 1788101907 | 28.89° C | 52% | 1013.4 hPa | 0 mm | - | 461 W/m² | - |
| 1788101602 | 27.78° C | 53% | 1013.5 hPa | 0 mm | - | 431 W/m² | - |
| 1788101297 | 27.22° C | 54% | 1013.6 hPa | 0 mm | - | 386 W/m² | - |
| 1788100993 | 26.67° C | 57% | 1013.5 hPa | 0 mm | - | 311 W/m² | - |
| 1788100689 | 26.67° C | 57% | 1013.5 hPa | 0 mm | - | 103 W/m² | - |
| 1788100389 | 26.67° C | 56% | 1013.3 hPa | 0 mm | - | 75 W/m² | - |
| 1788100083 | 27.22° C | 56% | 1013.6 hPa | 0 mm | - | 73 W/m² | - |
| 1788099778 | 27.22° C | 56% | 1013.6 hPa | 0 mm | - | 102 W/m² | - |
| 1788099475 | 26.67° C | 56% | 1013.6 hPa | 0 mm | - | 114 W/m² | - |
| 1788099168 | 26.67° C | 56% | 1013.5 hPa | 0 mm | - | 123 W/m² | - |
| 1788098869 | 26.67° C | 57% | 1013.8 hPa | 0 mm | - | 121 W/m² | - |
| 1788098563 | 26.11° C | 58% | 1013.8 hPa | 0 mm | - | 131 W/m² | - |
| 1788098258 | 26.11° C | 58% | 1013.8 hPa | 0 mm | - | 103 W/m² | - |
| 1788097954 | 25.56° C | 59% | 1013.8 hPa | 0 mm | - | 90 W/m² | - |
| 1788097649 | 25.56° C | 59% | 1013.6 hPa | 0 mm | - | 78 W/m² | - |
| 1788097344 | 25.56° C | 60% | 1013.7 hPa | 0 mm | - | 66 W/m² | - |
| 1788097040 | 25° C | 60% | 1013.9 hPa | 0 mm | - | 76 W/m² | - |
| 1788096736 | 25° C | 60% | 1013.8 hPa | 0 mm | - | 56 W/m² | - |
| 1788096431 | 24.44° C | 61% | 1013.8 hPa | 0 mm | - | 53 W/m² | - |
| 1788096127 | 24.44° C | 62% | 1013.8 hPa | 0 mm | - | 49 W/m² | - |
| 1788095826 | 24.44° C | 63% | 1013.8 hPa | 0 mm | - | 48 W/m² | - |
| 1788095526 | 23.89° C | 63% | 1013.9 hPa | 0 mm | - | 47 W/m² | - |
| 1788095221 | 23.89° C | 64% | 1013.9 hPa | 0 mm | - | 45 W/m² | - |
| 1788094921 | 23.89° C | 64% | 1014.1 hPa | 0 mm | - | 44 W/m² | - |
| 1788094620 | 23.89° C | 64% | 1014.1 hPa | 0 mm | - | 42 W/m² | - |
* Rain latest hour (hover to see other rain measurements)
** Current wind speed in m/s (hover to see current wind gust speed)